Location: The Stocker AstroScience Center
(25.7579°N, 80.3725°W)
Time: 18:45:13
(UTC-04:00)

ISS - All Passes

Search period start: 24 April 2018 00:00
Search period end: 04 May 2018 00:00
Orbit: 403 x 406 km, 51.6° (Epoch: 25 April)

Date Brightness Start Highest point End Pass type
(mag) Time Alt. Az. Time Alt. Az. Time Alt. Az.
24 Apr - 06:44:07 10° SSE 06:45:41 13° SE 06:47:16 10° E daylight
24 Apr - 08:19:01 10° WSW 08:21:54 29° NW 08:24:48 10° NNE daylight
24 Apr - 16:28:56 10° NW 16:32:12 72° NE 16:35:28 10° SE daylight
25 Apr - 07:26:24 10° SW 07:29:38 72° NW 07:32:52 10° NE daylight
25 Apr - 15:37:01 10° NNW 15:39:55 29° NE 15:42:49 10° ESE daylight
25 Apr - 17:14:30 10° W 17:16:09 13° SW 17:17:47 10° SSW daylight
26 Apr - 06:34:20 10° SSW 06:37:25 41° SE 06:40:31 10° ENE daylight
26 Apr - 08:12:51 10° WNW 08:14:02 11° NW 08:15:11 10° NNW daylight
26 Apr - 14:45:37 10° N 14:47:32 14° NE 14:49:25 10° ENE daylight
26 Apr - 16:21:06 10° WNW 16:24:01 30° SW 16:26:56 10° S daylight
27 Apr - 05:43:02 10° S 05:45:16 17° SE 05:47:31 10° E visible
27 Apr - 07:18:57 10° W 07:21:35 22° NW 07:24:13 10° N daylight
27 Apr - 15:28:33 10° NW 15:31:49 81° SW 15:35:05 10° SE daylight
28 Apr - 06:26:04 10° SW 06:29:14 51° NW 06:32:25 10° NNE daylight
28 Apr - 14:36:26 10° NNW 14:39:32 38° NE 14:42:37 10° ESE daylight
29 Apr - 05:33:46 10° SSW 05:36:58 59° SE 05:40:10 10° NE visible
29 Apr - 13:44:46 10° N 13:47:08 18° NE 13:49:29 10° E daylight
29 Apr - 15:20:53 10° WNW 15:23:32 22° SW 15:26:09 10° S daylight
30 Apr - 04:42:06 10° S 04:44:45 23° SE 04:47:24 10° ENE visible
30 Apr - 06:18:52 10° W 06:21:09 18° NW 06:23:26 10° N visible
30 Apr - 14:28:06 10° NW 14:31:19 57° SW 14:34:31 10° SSE daylight
01 May - 05:25:41 10° WSW 05:28:44 37° NW 05:31:47 10° NNE visible
01 May - 13:35:48 10° NNW 13:39:01 53° NE 13:42:12 10° SE daylight
02 May - 04:33:09 10° SW 04:36:24 84° SE 04:39:39 10° NE visible
02 May - 12:43:56 10° NNW 12:46:36 23° NE 12:49:18 10° E daylight
02 May - 14:20:42 10° W 14:22:55 17° SW 14:25:06 10° SSW daylight
03 May - 03:41:12 10° SSW 03:44:07 31° SE 03:47:03 10° ENE visible
03 May - 05:18:48 10° WNW 05:20:37 14° NW 05:22:26 10° N visible
03 May - 11:52:49 10° NNE 11:54:06 12° NE 11:55:23 10° ENE daylight
03 May - 13:27:35 10° WNW 13:30:41 40° SW 13:33:46 10° SSE daylight
